QPF
0.00 0.00 0.00 0.00 0.00 0.00 0.01 0.01 0.02 0.03 0.03 0.03 0.06 0.07 0.07 0.09 0.10 0.10 0.10 0.10 0.08 0.07 0.06 0.05 0.06 0.06 0.07 0.07 0.06 0.05 0.04 0.03 0.03 0.03 0.04 0.06 0.06 0.06
0.00 0.00 0.00 0.00 0.00 0.00 0.00 0.01 0.01 0.02 0.04 0.04 0.05 0.06 0.06 0.07 0.10 0.09 0.09 0.12 0.10 0.09 0.09 0.08 0.07 0.08 0.07 0.06 0.05 0.04 0.03 0.02 0.02 0.02 0.01 0.01 0.02 0.02
0.01 0.01 0.01 0.00 0.00 0.00 0.00 0.01 0.01 0.01 0.02 0.04 0.05 0.05 0.06 0.07 0.08 0.10 0.11 0.12 0.11 0.11 0.11 0.10 0.09 0.09 0.10 0.08 0.06 0.04 0.02 0.02 0.02 0.01 0.01 0.02 0.01 0.01
0.01 0.01 0.01 0.01 0.01 0.01 0.00 0.00 0.01 0.01 0.01 0.02 0.04 0.05 0.06 0.07 0.07 0.10 0.11 0.12 0.12 0.12 0.13 0.11 0.10 0.09 0.11 0.09 0.08 0.06 0.04 0.03 0.02 0.02 0.01 0.01 0.01 0.02
0.01 0.01 0.01 0.01 0.01 0.01 0.01 0.00 0.00 0.00 0.01 0.01 0.02 0.05 0.06 0.07 0.08 0.10 0.11 0.14 0.13 0.12 0.13 0.13 0.12 0.11 0.10 0.10 0.09 0.07 0.06 0.04 0.03 0.02 0.02 0.01 0.01 0.02
0.01 0.01 0.01 0.01 0.01 0.01 0.01 0.01 0.01 0.01 0.01 0.01 0.01 0.04 0.06 0.08 0.10 0.11 0.13 0.16 0.19 0.16 0.13 0.12 0.11 0.12 0.11 0.10 0.09 0.07 0.06 0.05 0.04 0.03 0.02 0.02 0.02 0.01
0.02 0.01 0.01 0.01 0.01 0.01 0.01 0.01 0.01 0.01 0.01 0.01 0.01 0.02 0.05 0.09 0.13 0.14 0.15 0.19 0.22 0.23 0.18 0.12 0.11 0.10 0.09 0.10 0.10 0.08 0.05 0.04 0.03 0.03 0.02 0.02 0.02 0.02
0.02 0.02 0.02 0.01 0.00 0.00 0.00 0.00 0.01 0.01 0.01 0.01 0.01 0.01 0.04 0.08 0.13 0.17 0.19 0.20 0.23 0.24 0.23 0.17 0.11 0.11 0.10 0.07 0.06 0.06 0.05 0.03 0.02 0.02 0.02 0.02 0.02 0.02
0.02 0.02 0.02 0.01 0.01 0.01 0.01 0.00 0.00 0.00 0.00 0.01 0.02 0.02 0.03 0.06 0.11 0.16 0.21 0.24 0.23 0.24 0.25 0.25 0.18 0.11 0.09 0.09 0.07 0.05 0.05 0.04 0.03 0.02 0.01 0.02 0.02 0.01
0.02 0.03 0.03 0.03 0.02 0.02 0.03 0.03 0.02 0.02 0.01 0.01 0.02 0.03 0.04 0.07 0.11 0.16 0.22 0.29 0.30 0.30 0.28 0.26 0.22 0.15 0.09 0.08 0.07 0.05 0.04 0.04 0.03 0.02 0.01 0.01 0.02 0.02
0.02 0.02 0.03 0.03 0.02 0.01 0.02 0.03 0.03 0.03 0.01 0.01 0.01 0.02 0.04 0.05 0.09 0.14 0.22 0.28 0.32 0.31 0.27 0.23 0.20 0.15 0.11 0.08 0.07 0.06 0.04 0.04 0.03 0.02 0.01 0.01 0.01 0.01
0.03 0.03 0.02 0.01 0.01 0.00 0.02 0.04 0.04 0.04 0.04 0.03 0.02 0.02 0.04 0.05 0.07 0.10 0.14 0.23 0.27 0.28 0.25 0.20 0.17 0.14 0.11 0.09 0.06 0.04 0.03 0.04 0.03 0.02 0.01 0.01 0.01 0.00
0.03 0.03 0.03 0.01 0.01 0.00 0.01 0.04 0.04 0.03 0.05 0.05 0.05 0.05 0.06 0.09 0.09 0.11 0.13 0.16 0.23 0.23 0.21 0.20 0.17 0.13 0.08 0.07 0.06 0.05 0.03 0.02 0.02 0.02 0.02 0.01 0.01 0.00
0.03 0.03 0.04 0.02 0.01 0.00 0.01 0.01 0.01 0.01 0.03 0.05 0.05 0.05 0.06 0.09 0.12 0.14 0.17 0.18 0.18 0.22 0.23 0.22 0.17 0.13 0.08 0.05 0.04 0.04 0.04 0.02 0.01 0.01 0.01 0.01 0.01 0.00
0.03 0.02 0.02 0.01 0.01 0.01 0.01 0.00 0.01 0.02 0.04 0.05 0.05 0.05 0.06 0.07 0.10 0.14 0.18 0.22 0.22 0.22 0.25 0.25 0.20 0.16 0.12 0.07 0.04 0.03 0.03 0.03 0.01 0.01 0.00 0.00 0.00 0.00
0.03 0.03 0.02 0.01 0.01 0.02 0.02 0.01 0.02 0.04 0.05 0.06 0.06 0.07 0.07 0.08 0.10 0.12 0.16 0.19 0.21 0.22 0.25 0.26 0.23 0.19 0.16 0.10 0.06 0.03 0.02 0.02 0.01 0.01 0.00 0.00 0.00 0.00
0.03 0.04 0.05 0.06 0.05 0.05 0.06 0.06 0.05 0.05 0.05 0.06 0.09 0.09 0.09 0.08 0.09 0.11 0.14 0.16 0.17 0.19 0.21 0.24 0.27 0.25 0.21 0.16 0.09 0.05 0.02 0.01 0.01 0.01 0.00 0.00 0.00 0.00
0.01 0.03 0.05 0.07 0.08 0.09 0.09 0.09 0.08 0.09 0.08 0.08 0.09 0.10 0.09 0.09 0.10 0.12 0.14 0.15 0.17 0.20 0.21 0.20 0.22 0.25 0.24 0.20 0.14 0.07 0.03 0.01 0.00 0.00 0.00 0.00 0.00 0.00
0.01 0.03 0.05 0.07 0.08 0.10 0.10 0.10 0.10 0.12 0.13 0.12 0.10 0.09 0.10 0.10 0.11 0.13 0.13 0.15 0.17 0.20 0.23 0.22 0.21 0.20 0.19 0.16 0.12 0.08 0.04 0.02 0.01 0.00 0.00 0.00 0.00 0.00
0.02 0.03 0.04 0.06 0.07 0.09 0.10 0.11 0.12 0.14 0.14 0.11 0.10 0.11 0.12 0.12 0.11 0.13 0.14 0.14 0.16 0.18 0.21 0.22 0.21 0.19 0.16 0.12 0.09 0.06 0.04 0.03 0.02 0.01 0.00 0.00 0.00 0.00
0.04 0.04 0.04 0.05 0.07 0.09 0.11 0.11 0.12 0.13 0.14 0.14 0.12 0.13 0.14 0.14 0.12 0.12 0.16 0.14 0.15 0.17 0.18 0.19 0.18 0.21 0.20 0.15 0.13 0.11 0.06 0.04 0.04 0.03 0.01 0.00 0.00 0.00
0.05 0.05 0.05 0.06 0.07 0.09 0.11 0.11 0.11 0.13 0.12 0.12 0.12 0.13 0.14 0.14 0.13 0.12 0.14 0.15 0.15 0.15 0.16 0.20 0.22 0.22 0.22 0.19 0.14 0.12 0.10 0.06 0.04 0.04 0.03 0.01 0.00 0.00
0.05 0.05 0.06 0.07 0.07 0.07 0.09 0.10 0.12 0.12 0.11 0.11 0.11 0.13 0.13 0.13 0.12 0.12 0.14 0.15 0.16 0.18 0.18 0.20 0.23 0.21 0.19 0.20 0.16 0.13 0.13 0.11 0.07 0.04 0.03 0.02 0.01 0.00
MSLP
1014.07 1014.01 1013.94 1013.84 1013.69 1013.47 1013.18 1012.81 1012.39 1011.94 1011.48 1011.05 1010.66 1010.32 1010.06 1009.86 1009.73 1009.66 1009.67 1009.75 1009.91 1010.16 1010.49 1010.92 1011.43 1012.03 1012.68 1013.39 1014.11 1014.84 1015.56 1016.24 1016.90 1017.51 1018.07 1018.59 1019.06 1019.49
1013.60 1013.55 1013.49 1013.42 1013.28 1013.09 1012.81 1012.47 1012.08 1011.65 1011.22 1010.80 1010.42 1010.08 1009.81 1009.59 1009.43 1009.34 1009.30 1009.33 1009.43 1009.62 1009.89 1010.26 1010.72 1011.26 1011.88 1012.56 1013.27 1014.00 1014.72 1015.43 1016.10 1016.73 1017.32 1017.86 1018.34 1018.79
1013.07 1013.02 1012.96 1012.89 1012.77 1012.60 1012.35 1012.05 1011.69 1011.30 1010.90 1010.51 1010.15 1009.82 1009.55 1009.33 1009.15 1009.03 1008.96 1008.94 1009.00 1009.13 1009.35 1009.65 1010.06 1010.55 1011.12 1011.76 1012.44 1013.16 1013.88 1014.59 1015.28 1015.93 1016.54 1017.10 1017.61 1018.07
1012.50 1012.43 1012.37 1012.30 1012.20 1012.04 1011.84 1011.57 1011.27 1010.92 1010.56 1010.21 1009.87 1009.57 1009.30 1009.07 1008.88 1008.74 1008.64 1008.60 1008.61 1008.70 1008.86 1009.11 1009.46 1009.89 1010.41 1011.00 1011.65 1012.33 1013.04 1013.74 1014.44 1015.10 1015.74 1016.32 1016.87 1017.37
1011.92 1011.82 1011.75 1011.68 1011.59 1011.47 1011.30 1011.09 1010.83 1010.54 1010.23 1009.91 1009.61 1009.32 1009.06 1008.83 1008.64 1008.48 1008.37 1008.30 1008.29 1008.34 1008.46 1008.66 1008.95 1009.32 1009.78 1010.31 1010.90 1011.54 1012.21 1012.91 1013.60 1014.28 1014.93 1015.56 1016.15 1016.70
1011.32 1011.20 1011.12 1011.05 1010.99 1010.90 1010.78 1010.62 1010.42 1010.19 1009.92 1009.64 1009.36 1009.09 1008.84 1008.62 1008.42 1008.26 1008.14 1008.07 1008.04 1008.07 1008.16 1008.32 1008.56 1008.87 1009.26 1009.73 1010.26 1010.85 1011.48 1012.15 1012.83 1013.52 1014.20 1014.86 1015.50 1016.11
1010.71 1010.58 1010.50 1010.44 1010.41 1010.36 1010.29 1010.19 1010.04 1009.86 1009.63 1009.39 1009.13 1008.87 1008.63 1008.41 1008.22 1008.07 1007.96 1007.89 1007.87 1007.90 1007.98 1008.12 1008.32 1008.59 1008.92 1009.32 1009.79 1010.32 1010.91 1011.54 1012.20 1012.89 1013.60 1014.29 1014.98 1015.65
1010.08 1009.95 1009.88 1009.85 1009.85 1009.85 1009.84 1009.78 1009.69 1009.54 1009.35 1009.12 1008.88 1008.63 1008.40 1008.19 1008.02 1007.89 1007.80 1007.76 1007.77 1007.82 1007.92 1008.06 1008.25 1008.48 1008.78 1009.13 1009.54 1010.02 1010.56 1011.15 1011.80 1012.48 1013.19 1013.91 1014.63 1015.34
1009.45 1009.33 1009.28 1009.29 1009.32 1009.37 1009.39 1009.38 1009.32 1009.20 1009.03 1008.82 1008.58 1008.33 1008.11 1007.91 1007.76 1007.66 1007.62 1007.63 1007.69 1007.80 1007.94 1008.11 1008.32 1008.56 1008.84 1009.16 1009.53 1009.97 1010.46 1011.02 1011.64 1012.30 1013.01 1013.73 1014.46 1015.19
1008.83 1008.73 1008.71 1008.74 1008.81 1008.89 1008.94 1008.95 1008.91 1008.80 1008.63 1008.41 1008.17 1007.92 1007.70 1007.52 1007.40 1007.35 1007.37 1007.45 1007.59 1007.77 1007.99 1008.23 1008.49 1008.76 1009.05 1009.37 1009.73 1010.14 1010.61 1011.13 1011.72 1012.36 1013.04 1013.75 1014.47 1015.19
1008.24 1008.16 1008.16 1008.21 1008.30 1008.38 1008.44 1008.46 1008.41 1008.29 1008.10 1007.87 1007.62 1007.37 1007.15 1006.99 1006.91 1006.91 1007.00 1007.17 1007.41 1007.69 1008.01 1008.34 1008.67 1009.01 1009.35 1009.70 1010.06 1010.47 1010.92 1011.42 1011.97 1012.57 1013.21 1013.89 1014.57 1015.26
1007.70 1007.64 1007.64 1007.69 1007.76 1007.84 1007.88 1007.87 1007.79 1007.64 1007.43 1007.18 1006.91 1006.65 1006.44 1006.31 1006.26 1006.33 1006.50 1006.76 1007.10 1007.50 1007.92 1008.36 1008.80 1009.22 1009.62 1010.02 1010.42 1010.83 1011.28 1011.76 1012.28 1012.84 1013.44 1014.06 1014.69 1015.33
1007.24 1007.17 1007.15 1007.17 1007.20 1007.23 1007.22 1007.17 1007.05 1006.86 1006.62 1006.35 1006.06 1005.80 1005.61 1005.50 1005.50 1005.62 1005.87 1006.22 1006.66 1007.16 1007.70 1008.25 1008.79 1009.30 1009.78 1010.24 1010.68 1011.12 1011.57 1012.04 1012.53 1013.06 1013.60 1014.17 1014.74 1015.32
1006.84 1006.73 1006.66 1006.62 1006.59 1006.55 1006.48 1006.36 1006.19 1005.97 1005.70 1005.41 1005.13 1004.88 1004.70 1004.62 1004.67 1004.85 1005.15 1005.58 1006.11 1006.70 1007.34 1007.98 1008.61 1009.21 1009.77 1010.30 1010.78 1011.25 1011.71 1012.18 1012.65 1013.14 1013.64 1014.15 1014.67 1015.18
1006.46 1006.30 1006.15 1006.03 1005.91 1005.79 1005.65 1005.47 1005.26 1005.01 1004.73 1004.45 1004.17 1003.95 1003.80 1003.76 1003.85 1004.07 1004.43 1004.91 1005.50 1006.16 1006.86 1007.58 1008.28 1008.95 1009.57 1010.15 1010.68 1011.18 1011.65 1012.11 1012.57 1013.03 1013.50 1013.97 1014.44 1014.91
1006.07 1005.82 1005.59 1005.36 1005.16 1004.95 1004.75 1004.53 1004.29 1004.04 1003.77 1003.51 1003.28 1003.10 1002.99 1002.99 1003.12 1003.37 1003.76 1004.28 1004.90 1005.59 1006.33 1007.09 1007.84 1008.55 1009.22 1009.83 1010.39 1010.91 1011.40 1011.86 1012.31 1012.75 1013.19 1013.64 1014.08 1014.54
1005.59 1005.26 1004.93 1004.62 1004.33 1004.06 1003.81 1003.57 1003.34 1003.11 1002.89 1002.68 1002.50 1002.38 1002.33 1002.37 1002.53 1002.81 1003.21 1003.74 1004.36 1005.06 1005.81 1006.58 1007.34 1008.07 1008.76 1009.39 1009.98 1010.51 1011.00 1011.47 1011.91 1012.35 1012.78 1013.22 1013.66 1014.11
1004.99 1004.58 1004.17 1003.79 1003.44 1003.14 1002.87 1002.65 1002.45 1002.27 1002.11 1001.98 1001.88 1001.82 1001.83 1001.92 1002.11 1002.40 1002.81 1003.32 1003.93 1004.61 1005.34 1006.10 1006.85 1007.58 1008.27 1008.92 1009.50 1010.04 1010.54 1011.01 1011.45 1011.89 1012.33 1012.77 1013.23 1013.70
1004.25 1003.77 1003.31 1002.89 1002.53 1002.22 1001.98 1001.79 1001.65 1001.55 1001.48 1001.43 1001.40 1001.42 1001.48 1001.61 1001.81 1002.11 1002.50 1002.99 1003.58 1004.23 1004.94 1005.67 1006.41 1007.13 1007.82 1008.46 1009.05 1009.59 1010.09 1010.56 1011.01 1011.45 1011.90 1012.36 1012.84 1013.36
1003.38 1002.88 1002.41 1001.99 1001.64 1001.37 1001.17 1001.05 1000.98 1000.96 1000.97 1001.00 1001.04 1001.11 1001.22 1001.37 1001.58 1001.87 1002.25 1002.72 1003.27 1003.90 1004.58 1005.30 1006.02 1006.74 1007.42 1008.06 1008.65 1009.20 1009.70 1010.17 1010.62 1011.07 1011.53 1012.01 1012.53 1013.08
1002.46 1001.97 1001.52 1001.14 1000.84 1000.63 1000.50 1000.45 1000.46 1000.51 1000.58 1000.66 1000.75 1000.85 1000.98 1001.13 1001.34 1001.62 1001.97 1002.42 1002.95 1003.56 1004.23 1004.94 1005.67 1006.39 1007.08 1007.73 1008.33 1008.88 1009.38 1009.85 1010.31 1010.76 1011.23 1011.73 1012.27 1012.86
1001.57 1001.13 1000.74 1000.43 1000.20 1000.06 1000.01 1000.02 1000.09 1000.18 1000.29 1000.39 1000.49 1000.59 1000.70 1000.84 1001.02 1001.27 1001.61 1002.03 1002.56 1003.17 1003.85 1004.57 1005.32 1006.06 1006.78 1007.45 1008.07 1008.62 1009.13 1009.60 1010.05 1010.50 1010.97 1011.47 1012.02 1012.64
1000.81 1000.45 1000.15 999.92 999.78 999.72 999.73 999.79 999.88 999.99 1000.09 1000.17 1000.24 1000.30 1000.37 1000.46 1000.60 1000.82 1001.13 1001.54 1002.07 1002.70 1003.40 1004.16 1004.95 1005.73 1006.49 1007.19 1007.83 1008.40 1008.92 1009.39 1009.83 1010.26 1010.71 1011.20 1011.75 1012.36
Thickness
5629 5629 5628 5632 5634 5636 5639 5641 5642 5646 5654 5662 5666 5672 5675 5679 5683 5688 5694 5699 5702 5705 5708 5711 5713 5715 5716 5717 5718 5718 5718 5717 5717 5717 5716 5715 5714 5714
5620 5619 5619 5622 5626 5627 5630 5633 5636 5638 5644 5653 5657 5663 5666 5671 5676 5682 5688 5693 5697 5701 5705 5708 5711 5713 5715 5716 5717 5718 5718 5718 5717 5717 5716 5716 5715 5714
5613 5613 5612 5612 5615 5619 5622 5624 5628 5631 5635 5643 5649 5655 5657 5661 5668 5675 5681 5687 5693 5697 5701 5704 5708 5711 5713 5715 5716 5717 5717 5717 5717 5717 5716 5716 5715 5715
5607 5605 5605 5605 5606 5607 5611 5615 5619 5623 5626 5631 5639 5645 5649 5654 5660 5666 5674 5681 5687 5692 5696 5700 5704 5707 5710 5712 5714 5715 5716 5716 5716 5716 5716 5716 5715 5715
5599 5598 5597 5597 5597 5600 5601 5606 5610 5615 5619 5624 5630 5637 5642 5647 5652 5658 5665 5672 5680 5686 5690 5694 5699 5703 5707 5709 5711 5713 5714 5714 5715 5715 5715 5715 5715 5714
5592 5591 5590 5590 5590 5591 5593 5595 5599 5604 5610 5615 5621 5628 5634 5640 5644 5650 5657 5664 5671 5679 5684 5689 5694 5698 5702 5705 5707 5709 5710 5712 5713 5713 5714 5714 5714 5713
5585 5584 5584 5583 5582 5582 5585 5589 5591 5594 5601 5607 5614 5620 5627 5631 5637 5645 5649 5655 5662 5670 5676 5683 5688 5692 5695 5698 5702 5704 5707 5709 5710 5710 5711 5712 5712 5712
5578 5577 5576 5575 5575 5572 5572 5574 5576 5582 5590 5596 5604 5611 5617 5623 5629 5635 5641 5647 5653 5662 5667 5673 5680 5684 5689 5694 5697 5699 5702 5704 5706 5707 5708 5709 5709 5709
5571 5569 5570 5572 5569 5569 5568 5566 5567 5569 5573 5580 5591 5599 5607 5614 5619 5626 5632 5639 5646 5654 5657 5662 5668 5673 5679 5684 5689 5692 5695 5698 5701 5702 5703 5704 5705 5705
5565 5564 5562 5561 5561 5561 5562 5564 5566 5569 5570 5572 5579 5588 5594 5601 5609 5615 5623 5630 5637 5644 5650 5652 5656 5661 5667 5672 5676 5682 5686 5690 5693 5696 5698 5699 5699 5699
5561 5559 5556 5554 5552 5548 5549 5553 5558 5562 5564 5567 5572 5577 5582 5589 5595 5604 5614 5622 5628 5635 5640 5644 5647 5649 5653 5658 5663 5670 5676 5680 5685 5688 5690 5691 5692 5691
5556 5553 5548 5545 5542 5538 5539 5543 5548 5553 5557 5563 5565 5569 5575 5581 5586 5594 5605 5614 5622 5627 5632 5636 5638 5641 5642 5645 5651 5658 5664 5669 5674 5678 5681 5683 5684 5686
5548 5547 5545 5538 5532 5529 5527 5532 5537 5540 5546 5552 5559 5566 5572 5579 5586 5593 5599 5608 5615 5622 5627 5630 5633 5637 5641 5638 5640 5646 5654 5659 5663 5666 5670 5674 5678 5682
5539 5539 5537 5529 5524 5521 5521 5524 5524 5525 5535 5544 5551 5559 5567 5575 5583 5591 5597 5603 5610 5616 5621 5626 5630 5634 5637 5636 5634 5636 5643 5650 5656 5659 5662 5664 5669 5674
5534 5531 5525 5521 5518 5518 5516 5515 5515 5521 5529 5537 5545 5554 5561 5569 5576 5583 5589 5595 5601 5607 5613 5619 5625 5629 5635 5638 5635 5634 5636 5640 5647 5652 5655 5659 5664 5668
5530 5527 5520 5517 5515 5514 5515 5515 5517 5522 5526 5532 5539 5547 5554 5560 5567 5575 5582 5588 5592 5598 5605 5610 5616 5622 5627 5633 5634 5633 5635 5638 5642 5647 5651 5655 5659 5664
5523 5524 5523 5522 5521 5520 5520 5521 5520 5521 5522 5527 5533 5539 5546 5553 5560 5568 5575 5582 5587 5593 5596 5600 5606 5612 5618 5625 5628 5631 5633 5635 5638 5642 5646 5651 5656 5661
5514 5522 5523 5522 5522 5522 5522 5521 5520 5521 5522 5525 5528 5533 5540 5547 5554 5562 5569 5576 5583 5588 5591 5594 5597 5600 5605 5610 5619 5627 5630 5632 5634 5636 5643 5648 5651 5656
5516 5523 5524 5524 5523 5522 5521 5520 5520 5520 5521 5522 5525 5530 5536 5543 5549 5556 5564 5571 5578 5583 5587 5589 5593 5599 5604 5606 5609 5617 5626 5629 5629 5631 5638 5645 5649 5653
5525 5526 5526 5526 5524 5522 5521 5520 5519 5519 5519 5521 5523 5527 5532 5539 5545 5552 5560 5568 5574 5578 5581 5585 5591 5599 5606 5610 5608 5610 5617 5624 5627 5629 5634 5639 5643 5644
5532 5529 5527 5526 5525 5523 5521 5520 5519 5518 5519 5521 5523 5526 5530 5536 5542 5550 5557 5562 5568 5574 5579 5583 5589 5593 5599 5603 5603 5603 5607 5613 5621 5627 5630 5635 5637 5639
5532 5530 5528 5526 5525 5524 5522 5521 5521 5520 5521 5522 5524 5527 5530 5535 5541 5548 5555 5561 5567 5572 5577 5579 5580 5585 5592 5599 5603 5601 5601 5604 5609 5615 5621 5629 5638 5642
5532 5530 5528 5527 5526 5525 5525 5525 5524 5524 5524 5525 5526 5528 5531 5535 5541 5547 5553 5559 5564 5569 5572 5574 5576 5580 5587 5593 5597 5598 5597 5599 5604 5608 5613 5618 5628 5637